Location: Asheville, NC
(35.6000°N, 82.5500°W)
Time: 00:31:11
(UTC-04:00)

SEEDS - Pass Details

Date: 12 March 2018
Orbit: 587 x 605 km, 97.5° (Epoch: 23 June)

Event Time Altitude Azimuth Distance (km) Brightness Sun altitude
Rises 20:07:43 0° 174° (S) 2,797 ? -7.4°
Reaches altitude 10° 20:09:53 10° 178° (S) 1,903 ? -7.9°
Maximum altitude 20:13:58 64° 259° (W) 656 ? -8.7°
Drops below altitude 10° 20:18:07 10° 342° (NNW) 1,926 ? -9.5°
Sets 20:20:19 0° 345° (NNW) 2,834 ? -10.0°
